[[{"header":{"parameterUnit":"m.s-1","parameterCategory":2,"la1":30.2991,"la2":30.254,"lo1":-89.0895,"lo2":-89.0444,"dy":0.0017,"dx":0.0017,"nx":28,"ny":28,"refTime":"2023-08-01T03:00:00:Z","depth":"0","parameterNumber":2,"parameterNumberName":"U-component_of_CURRENTS"},"data":[0,0,0,0,0,0,0,0,0,0,0,0,0,0,0,0,0,0,0,0,0,0,0,0,0,0,0,0,0,0,0,0,0,0,0,0,0,0,0,0,0,0,0,0,0,0,0,0,0,0,0,0,0,0,0,0,0,0,0.2868,0.2868,0,0.2893,0.2893,0.2893,0.287,0.2869,0.2868,0.2867,0.2799,0.2798,0.2797,0,0,0,0,0,0,0,0,0,0,0,0,0,0.2858,0.2858,0.2868,0.2868,0.2869,0.2893,0.2893,0.2893,0.287,0.2869,0.2868,0.2867,0.28,0.2798,0.2797,0,0,0,0,0,0,0,0,0,0,0,0,0,0.2868,0.2858,0.2868,0.2862,0.2861,0.2893,0.2893,0.2893,0.287,0.2869,0.2868,0.2867,0.28,0.2798,0.2797,0.2809,0,0,0.2792,0.2791,0,0,0,0,0,0,0,0,0.2868,0.2869,0.2862,0.2862,0.2862,0.2879,0.2865,0.2861,0.287,0.2865,0.2867,0.2866,0.2819,0.2816,0.2822,0.2806,0.2803,0.2792,0.2791,0.279,0.2789,0,0,0,0,0,0,0,0.2867,0.2868,0.2876,0.2863,0.2863,0.2877,0.2877,0.2864,0.2845,0.2865,0.2864,0.287,0.2818,0.2824,0.282,0.2802,0.2792,0.279,0.2789,0.2789,0.2854,0.2856,0,0,0,0,0,0,0.2866,0.2867,0.2875,0.2877,0.2864,0.2878,0.2878,0.2873,0.2847,0.2843,0.2871,0.2869,0.2827,0.2822,0.2817,0.2905,0.279,0.2788,0.2787,0.2851,0.2854,0.2857,0,0,0,0,0,0,0.2866,0.2866,0.2874,0.2875,0.2877,0.2879,0.2874,0.2874,0.2888,0.2853,0.2847,0.2886,0.2826,0.2819,0.285,0.2899,0.2788,0.2786,0.2848,0.2852,0.2856,0.3032,0,0,0,0,0,0,0.2865,0.2865,0.2872,0.2874,0.2877,0.2918,0.2876,0.2875,0.2894,0.2891,0.2864,0.2856,0.2824,0.2853,0.2848,0.2895,0.2785,0.2844,0.285,0.2855,0.3023,0.3042,0.3058,0,0,0,0,0,0.2864,0.2881,0.2871,0.2873,0.2881,0.2921,0.2925,0.2921,0.2896,0.2924,0.2917,0.2857,0.2881,0.2855,0.2848,0.2895,0.2842,0.2848,0.2854,0.3015,0.3038,0.3058,0,0,0,0,0,0,0.2874,0.2881,0.287,0.2885,0.2911,0.2918,0.2942,0.2934,0.295,0.2945,0.29,0.2894,0.2946,0.2895,0.2866,0.2929,0.2848,0.2853,0.2973,0.2994,0.3011,0.3014,0.2783,0,0,0,0,0,0.2881,0.2898,0.2907,0.2924,0.2938,0.2941,0.2957,0.2958,0.2968,0.2973,0.296,0.2947,0.2966,0.2959,0.2966,0.2992,0.2977,0.3015,0.3032,0.3047,0.3046,0.3128,0.3154,0.2877,0.2877,0.2877,0,0,0.2887,0.2896,0.2903,0.293,0.2943,0.299,0.2948,0.2986,0.3033,0.2963,0.3023,0.3019,0.2993,0.3046,0.3059,0.3005,0.3115,0.3055,0.3069,0.3059,0.3138,0.3165,0.3189,0.2882,0.2881,0.288,0,0,0.2922,0.2921,0.2951,0.2985,0.3021,0.3036,0.3052,0.3077,0.3096,0.3151,0.3129,0.3163,0.3161,0.3174,0.3172,0.3284,0.3223,0.3271,0.3343,0.3425,0.3449,0.347,0.3475,0.3495,0.326,0.326,0.3261,0,0.293,0.2965,0.2971,0.302,0.3055,0.3062,0.3115,0.3151,0.3188,0.3206,0.319,0.3239,0.3228,0.3293,0.3341,0.3326,0.3333,0.3269,0.3451,0.3471,0.3489,0.349,0.3509,0.327,0.3269,0.3268,0.3267,0,0.299,0.3029,0.3058,0.312,0.3163,0.3216,0.3262,0.3306,0.3321,0.3341,0.3414,0.3426,0.3436,0.3456,0.3434,0.355,0.3501,0.3486,0.3402,0.3529,0.3519,0.3537,0.3283,0.328,0.3277,0.3275,0,0,0.297,0.3078,0.3087,0.3134,0.322,0.3258,0.3347,0.3415,0.3449,0.3509,0.3556,0.3632,0.3614,0.3613,0.3601,0.367,0.3817,0.3635,0.3635,0.3646,0.3956,0.3692,0.3684,0.3847,0.3852,0.3855,0.3893,0,0.3014,0.3129,0.3163,0.3272,0.3338,0.3376,0.3448,0.3511,0.355,0.3602,0.3641,0.3683,0.3681,0.3683,0.3772,0.38,0.3872,0.3804,0.3823,0.3822,0.3581,0.37,0.3418,0.3409,0.391,0.3912,0.3914,0,0.3054,0.3132,0.3246,0.3349,0.3373,0.3425,0.3513,0.3577,0.3652,0.3673,0.373,0.3745,0.3844,0.3827,0.3969,0.3927,0.3963,0.3989,0.3991,0.369,0.3592,0.3365,0.342,0.3252,0.394,0.3938,0.3936,0,0.3057,0.3181,0.3273,0.3317,0.3435,0.3465,0.3512,0.3587,0.3633,0.3707,0.3725,0.3837,0.3868,0.398,0.4022,0.4017,0.4156,0.4146,0.3944,0.3923,0.3652,0.3597,0.3545,0.4277,0.4277,0.4277,0.4277,0,0.3096,0.3165,0.3273,0.3327,0.3403,0.3467,0.3528,0.3577,0.3642,0.3687,0.3749,0.3793,0.3921,0.3993,0.4055,0.4021,0.4186,0.3965,0.3932,0.3697,0.3649,0.3459,0.3448,0.4278,0.4278,0.4278,0.4278,0,0.3089,0.3171,0.3277,0.3388,0.3412,0.346,0.3531,0.3568,0.3618,0.3676,0.3699,0.379,0.3857,0.3938,0.4075,0.4001,0.3871,0.3988,0.365,0.3573,0.3144,0.3154,0.3011,0.2955,0.3749,0.3743,0.3738,0,0.3091,0.3155,0.3298,0.3343,0.3385,0.3452,0.3486,0.3553,0.3584,0.3665,0.3685,0.3752,0.3784,0.3813,0.3715,0.3703,0.3688,0.3382,0.3315,0.3074,0.3067,0.3035,0.3002,0.3041,0.303,0.3022,0.3015,0,0.3096,0.3155,0.3249,0.3351,0.3399,0.3448,0.3493,0.3514,0.3577,0.3601,0.3629,0.3657,0.3595,0.3407,0.33,0.3258,0.3121,0.3196,0.3085,0.2606,0.2439,0.2379,0.3029,0.2939,0.2947,0.2952,0.2956,0.296,0.3088,0.315,0.3278,0.3355,0.3411,0.3428,0.341,0.3441,0.3462,0.3404,0.3511,0.3379,0.3134,0.2918,0.2855,0.237,0.2607,0.2198,0.2263,0.2276,0.2109,0.2524,0.23,0.2304,0.2307,0.231,0.2313,0,0.309,0.3173,0.326,0.3353,0.3365,0.34,0.3397,0.3316,0.3265,0.3181,0.3142,0.2742,0.2443,0.2195,0.167,0.1461,0.1477,0.1378,0.1322,0.1373,0.183,0.1677,0.1136,0.1136,0.1137,0.1137,0.1137,0.1137,0.3104,0.3203,0.3252,0.3284,0.3304,0.3221,0.3174,0.3052,0.2932,0.2584,0.226,0.2138,0.1771,0.1255,0.0827,0.0787,0.0788,0.0639,0.0831,0.115,0.1234,0.1314,0.1164,0.0525,0.0525,0.0244,0.0241,0.0239]},{"header":{"parameterUnit":"m.s-1","parameterCategory":2,"la1":30.2991,"la2":30.254,"lo1":-89.0895,"lo2":-89.0444,"dy":0.0017,"dx":0.0017,"nx":28,"ny":28,"refTime":"2023-08-01T03:00:00:Z","depth":"0","parameterNumber":3,"parameterNumberName":"V-component_of_CURRENTS"},"data":[0,0,0,0,0,0,0,0,0,0,0,0,0,0,0,0,0,0,0,0,0,0,0,0,0,0,0,0,0,0,0,0,0,0,0,0,0,0,0,0,0,0,0,0,0,0,0,0,0,0,0,0,0,0,0,0,0,0,0.0268,0.0268,0,0.0271,0.0271,0.0271,0.0263,0.0263,0.0263,0.0263,0.0221,0.022,0.0219,0,0,0,0,0,0,0,0,0,0,0,0,0,0.0248,0.0249,0.0268,0.0268,0.0268,0.0271,0.0271,0.0271,0.0263,0.0263,0.0263,0.0263,0.0221,0.022,0.0219,0,0,0,0,0,0,0,0,0,0,0,0,0,0.0253,0.0249,0.0268,0.0266,0.0266,0.0271,0.0271,0.0271,0.0263,0.0263,0.0263,0.0262,0.0222,0.022,0.0219,0.0213,0,0,0.0214,0.0213,0,0,0,0,0,0,0,0,0.0253,0.0254,0.0266,0.0266,0.0266,0.0268,0.0249,0.025,0.0263,0.0262,0.0263,0.0262,0.0234,0.0231,0.023,0.0211,0.0209,0.0214,0.0213,0.0212,0.0212,0,0,0,0,0,0,0,0.0253,0.0254,0.0268,0.0266,0.0266,0.0263,0.0263,0.0249,0.0247,0.0262,0.0262,0.0265,0.0233,0.0232,0.0229,0.0208,0.0214,0.0213,0.0212,0.0211,0.0154,0.0153,0,0,0,0,0,0,0.0256,0.0253,0.0267,0.0268,0.0261,0.0263,0.0264,0.0266,0.0248,0.0246,0.0265,0.0265,0.0235,0.0231,0.0228,0.0188,0.0212,0.0211,0.021,0.0154,0.0154,0.0153,0,0,0,0,0,0,0.0256,0.0257,0.0267,0.0262,0.0263,0.0264,0.0267,0.0266,0.0266,0.0251,0.0248,0.0266,0.0234,0.023,0.0211,0.0187,0.021,0.0209,0.0155,0.0154,0.0153,0.0128,0,0,0,0,0,0,0.0255,0.0257,0.0257,0.0262,0.0264,0.027,0.0267,0.0267,0.0269,0.0268,0.025,0.0246,0.0234,0.0213,0.0209,0.0185,0.0208,0.0156,0.0155,0.0154,0.0129,0.0126,0.0123,0,0,0,0,0,0.0254,0.0256,0.0257,0.0259,0.0264,0.0271,0.0271,0.027,0.0269,0.0269,0.0253,0.0247,0.0203,0.0212,0.0207,0.0182,0.0156,0.0155,0.0154,0.0131,0.0127,0.0123,0,0,0,0,0,0,0.024,0.0255,0.0257,0.026,0.0265,0.027,0.0269,0.0272,0.0261,0.0257,0.0242,0.0237,0.0207,0.0204,0.0214,0.0163,0.0177,0.0175,0.0161,0.0157,0.0154,0.0197,0.0206,0,0,0,0,0,0.0239,0.025,0.0257,0.0261,0.0262,0.0266,0.0268,0.027,0.0264,0.026,0.0248,0.0228,0.0199,0.0187,0.0167,0.0145,0.0206,0.0126,0.0123,0.012,0.0152,0.0264,0.0276,0.0148,0.0149,0.0149,0,0,0.0236,0.0245,0.0251,0.026,0.0261,0.0252,0.0266,0.0271,0.0256,0.0256,0.0231,0.0218,0.0191,0.0159,0.0145,0.0153,0.0175,0.0119,0.0116,0.0151,0.0265,0.0278,0.0289,0.0148,0.0148,0.0148,0,0,0.0235,0.0241,0.0247,0.0247,0.0254,0.025,0.0252,0.0256,0.025,0.0233,0.0217,0.0211,0.0166,0.0153,0.0135,0.0111,0.0155,0.0082,0.0101,0.0208,0.0221,0.0233,0.0278,0.0295,0.0082,0.0082,0.0082,0,0.0227,0.023,0.0248,0.0245,0.0237,0.0245,0.0234,0.0225,0.0223,0.0229,0.022,0.0201,0.0169,0.015,0.0125,0.0106,0.0162,0.0112,0.0209,0.0223,0.0236,0.028,0.0298,0.008,0.008,0.0081,0.0081,0,0.0225,0.022,0.0221,0.0214,0.021,0.0204,0.0194,0.0195,0.0189,0.0195,0.0197,0.0182,0.0189,0.015,0.0119,0.017,0.0175,0.0194,0.0227,0.0248,0.029,0.0311,0.0078,0.0079,0.0079,0.008,0,0,0.0221,0.0219,0.0217,0.0211,0.0192,0.0195,0.0168,0.0165,0.0189,0.018,0.0226,0.0158,0.0199,0.0185,0.0165,0.0232,0.0327,0.0247,0.0253,0.0305,0.0538,0.0488,0.0505,0.0379,0.0384,0.0387,0.0513,0,0.0206,0.0197,0.0194,0.0173,0.0161,0.0159,0.0146,0.0151,0.0167,0.0218,0.0225,0.0253,0.0194,0.022,0.0274,0.0335,0.0389,0.029,0.0499,0.0504,0.0472,0.0531,0.0519,0.0628,0.0533,0.0536,0.0539,0,0.02,0.0192,0.0172,0.0169,0.0166,0.0155,0.0174,0.0171,0.0226,0.0255,0.0306,0.0337,0.0397,0.0375,0.0508,0.0455,0.0494,0.0535,0.0542,0.0535,0.0496,0.0601,0.067,0.0634,0.057,0.0568,0.0566,0,0.0199,0.0179,0.0165,0.0156,0.015,0.0151,0.0151,0.0188,0.0227,0.0311,0.0388,0.0453,0.0535,0.0611,0.0654,0.0613,0.083,0.0791,0.0772,0.0767,0.0819,0.0811,0.0902,0.0912,0.0912,0.0912,0.0911,0,0.0186,0.0177,0.0168,0.0161,0.0173,0.0163,0.021,0.0229,0.031,0.04,0.0427,0.0542,0.0616,0.0725,0.0736,0.0823,0.0901,0.0806,0.0823,0.0798,0.0787,0.0807,0.0787,0.0916,0.0915,0.0915,0.0914,0,0.0196,0.0183,0.0177,0.0169,0.0176,0.019,0.0247,0.0309,0.0362,0.0499,0.054,0.0666,0.0811,0.0852,0.0997,0.0944,0.1013,0.1017,0.094,0.0945,0.0852,0.083,0.0989,0.1003,0.1027,0.1027,0.1027,0,0.0203,0.0198,0.0198,0.022,0.0219,0.0248,0.0296,0.0336,0.0416,0.0581,0.0672,0.0833,0.0976,0.1125,0.1098,0.1125,0.108,0.1063,0.0972,0.0875,0.0865,0.0852,0.0851,0.1013,0.1012,0.1012,0.1012,0,0.0221,0.0222,0.0225,0.0265,0.0305,0.0361,0.0424,0.0494,0.0581,0.0713,0.0905,0.1032,0.1152,0.1212,0.1194,0.117,0.1042,0.1056,0.103,0.093,0.0862,0.0871,0.0846,0.1011,0.1011,0.1011,0.1011,0.1011,0.0249,0.0266,0.0282,0.0319,0.0377,0.0468,0.0538,0.0647,0.0794,0.1012,0.1089,0.1306,0.1279,0.1283,0.1231,0.1052,0.1078,0.0972,0.0971,0.0979,0.095,0.0875,0.1005,0.1005,0.1005,0.1005,0.1005,0,0.0283,0.0304,0.0345,0.0398,0.0476,0.0497,0.0631,0.0735,0.0932,0.1152,0.1342,0.1435,0.1423,0.1308,0.1072,0.0976,0.0954,0.0922,0.092,0.0938,0.0948,0.0899,0.0925,0.0925,0.0925,0.0925,0.0925,0.0925,0.0311,0.0344,0.0355,0.0467,0.0526,0.0656,0.0743,0.0916,0.1083,0.1345,0.1475,0.1571,0.1421,0.1139,0.0942,0.0905,0.0895,0.0874,0.0889,0.0873,0.0877,0.0881,0.083,0.0841,0.0841,0.0883,0.0883,0.0884]}],[{"header":{"parameterUnit":"m.s-1","parameterCategory":2,"la1":30.2991,"la2":30.254,"lo1":-89.0895,"lo2":-89.0444,"dy":0.0017,"dx":0.0017,"nx":28,"ny":28,"refTime":"2023-08-01T03:00:00:Z","depth":"2","parameterNumber":2,"parameterNumberName":"U-component_of_CURRENTS"},"data":[0,0,0,0,0,0,0,0,0,0,0,0,0,0,0,0,0,0,0,0,0,0,0,0,0,0,0,0,0,0,0,0,0,0,0,0,0,0,0,0,0,0,0,0,0,0,0,0,0,0,0,0,0,0,0,0,0,0,0.1675,0.1674,0,0.1635,0.1635,0.1636,0.169,0.1691,0.1692,0.1693,0.1699,0.1698,0.1697,0,0,0,0,0,0,0,0,0,0,0,0,0,0.1754,0.1753,0.1675,0.1674,0.1672,0.1635,0.1635,0.1636,0.1689,0.1691,0.1692,0.1694,0.17,0.1698,0.1697,0,0,0,0,0,0,0,0,0,0,0,0,0,0.1725,0.1753,0.1675,0.1688,0.1689,0.1635,0.1635,0.1636,0.1689,0.1691,0.1693,0.1694,0.17,0.1699,0.1697,0.1654,0,0,0.1693,0.1692,0,0,0,0,0,0,0,0,0.1727,0.1724,0.1688,0.1687,0.1687,0.1662,0.1665,0.1641,0.1689,0.1698,0.1693,0.1695,0.1684,0.1684,0.1684,0.1654,0.1654,0.1693,0.1692,0.1691,0.1691,0,0,0,0,0,0,0,0.1729,0.1725,0.1668,0.1686,0.1686,0.1681,0.168,0.1661,0.1689,0.1697,0.1699,0.1681,0.1686,0.1685,0.1685,0.1654,0.1693,0.1692,0.1691,0.169,0.1687,0.1687,0,0,0,0,0,0,0.1717,0.1727,0.1669,0.1666,0.1702,0.1678,0.1677,0.1675,0.1688,0.1689,0.1679,0.1683,0.1687,0.1686,0.1685,0.1731,0.1691,0.169,0.1689,0.1686,0.1687,0.1688,0,0,0,0,0,0,0.1719,0.1713,0.167,0.1688,0.1681,0.1674,0.1671,0.1673,0.1691,0.1672,0.1677,0.1696,0.1688,0.1687,0.1682,0.1728,0.169,0.1688,0.1685,0.1686,0.1687,0.1761,0,0,0,0,0,0,0.1722,0.1715,0.1711,0.1688,0.1679,0.1675,0.1669,0.1671,0.1672,0.1678,0.1687,0.1689,0.169,0.1684,0.168,0.1726,0.1687,0.1684,0.1686,0.1687,0.1758,0.1764,0.177,0,0,0,0,0,0.1725,0.1685,0.1712,0.1704,0.1675,0.1675,0.1674,0.1678,0.1671,0.1698,0.1684,0.169,0.1692,0.1682,0.1678,0.1725,0.1684,0.1685,0.1687,0.1755,0.1763,0.177,0,0,0,0,0,0,0.1713,0.1686,0.1714,0.1672,0.1701,0.1683,0.167,0.1681,0.1689,0.1689,0.1679,0.168,0.171,0.1687,0.1677,0.1727,0.1696,0.1697,0.1749,0.1757,0.1763,0.1828,0.1686,0,0,0,0,0,0.171,0.1694,0.1692,0.1678,0.1675,0.1683,0.1678,0.1699,0.1691,0.1699,0.17,0.1697,0.1707,0.1707,0.1717,0.1714,0.175,0.1746,0.1752,0.1758,0.1808,0.1927,0.1951,0.1693,0.1693,0.1693,0,0,0.1712,0.1688,0.1687,0.1678,0.1685,0.1682,0.1688,0.1693,0.1715,0.1692,0.171,0.1723,0.1713,0.174,0.175,0.1727,0.1831,0.176,0.1765,0.1813,0.1932,0.1957,0.198,0.1694,0.1694,0.1694,0,0,0.169,0.1681,0.1664,0.167,0.1678,0.1686,0.1692,0.1701,0.1734,0.1744,0.1752,0.1794,0.1768,0.1808,0.181,0.1847,0.1872,0.1841,0.1917,0.2031,0.2055,0.2076,0.2082,0.2104,0.1832,0.1832,0.1833,0,0.1696,0.1678,0.1668,0.1646,0.1655,0.1686,0.1697,0.1714,0.1735,0.178,0.1761,0.1817,0.1813,0.1878,0.1908,0.1871,0.1907,0.1888,0.2045,0.2068,0.2089,0.2091,0.2114,0.1836,0.1836,0.1835,0.1835,0,0.1677,0.1659,0.164,0.164,0.1652,0.1669,0.1692,0.1739,0.1767,0.1803,0.1896,0.1906,0.1954,0.1958,0.1943,0.2089,0.2052,0.2053,0.2037,0.2121,0.2114,0.2137,0.1842,0.184,0.1839,0.1838,0,0,0.1693,0.1647,0.1641,0.1659,0.1663,0.1681,0.1718,0.1797,0.1851,0.19,0.1993,0.204,0.2087,0.2098,0.2107,0.2209,0.2357,0.2206,0.221,0.2231,0.2555,0.2315,0.2316,0.2406,0.2412,0.2417,0.2464,0,0.1705,0.1673,0.1655,0.1673,0.167,0.1717,0.1759,0.1833,0.1893,0.1983,0.2062,0.2141,0.212,0.2174,0.2272,0.2368,0.2436,0.2341,0.2457,0.2458,0.2255,0.2343,0.2112,0.212,0.2486,0.249,0.2493,0,0.1676,0.1679,0.1691,0.172,0.1731,0.1763,0.1881,0.1924,0.2043,0.2099,0.22,0.2249,0.2402,0.2373,0.2572,0.252,0.2555,0.2604,0.2606,0.2394,0.2266,0.2109,0.2148,0.2532,0.2529,0.2526,0.2523,0,0.1697,0.1683,0.1717,0.1722,0.1769,0.1834,0.1887,0.1986,0.2053,0.2202,0.2274,0.2417,0.2521,0.2634,0.2689,0.2677,0.2883,0.2857,0.265,0.2629,0.2461,0.2414,0.3007,0.3007,0.3007,0.3006,0.3006,0,0.1689,0.1712,0.1739,0.1771,0.1845,0.1875,0.1986,0.2049,0.217,0.2252,0.2352,0.2433,0.2619,0.2715,0.2751,0.2748,0.2917,0.2697,0.266,0.2462,0.2417,0.281,0.2787,0.3008,0.3008,0.3007,0.3007,0,0.1679,0.1698,0.1729,0.1811,0.1846,0.1901,0.2019,0.2098,0.221,0.2324,0.2388,0.2528,0.2623,0.2699,0.2868,0.28,0.2836,0.2775,0.2462,0.2386,0.2482,0.2462,0.2584,0.2577,0.2571,0.2566,0.2561,0,0.1657,0.1674,0.1744,0.1796,0.1847,0.1939,0.2013,0.2114,0.2181,0.2341,0.2394,0.2523,0.2527,0.2608,0.2553,0.2517,0.2661,0.2278,0.2211,0.2505,0.2458,0.2447,0.2435,0.1996,0.1987,0.1981,0.1975,0,0.1645,0.1673,0.1729,0.1813,0.1895,0.1943,0.2048,0.2076,0.2191,0.2274,0.2328,0.2347,0.235,0.2197,0.213,0.2087,0.2265,0.2123,0.2611,0.21,0.1945,0.1898,0.1909,0.1912,0.1918,0.1923,0.1926,0.1929,0.1643,0.1665,0.1745,0.1809,0.1896,0.1916,0.1915,0.1979,0.2013,0.2021,0.2119,0.2033,0.2025,0.1752,0.167,0.1608,0.1783,0.1727,0.1754,0.1787,0.1673,0.1512,0.1372,0.1375,0.1377,0.138,0.1382,0,0.1615,0.1676,0.1741,0.1797,0.1827,0.191,0.192,0.1852,0.1795,0.1786,0.1749,0.149,0.1333,0.1337,0.112,0.1074,0.1125,0.1037,0.1123,0.1183,0.1237,0.1101,0.0646,0.0644,0.0642,0.064,0,0,0.1635,0.1659,0.1668,0.1687,0.1758,0.173,0.1697,0.1575,0.1496,0.1322,0.1223,0.1227,0.1264,0.0941,0.0878,0.0739,0.0968,0.0685,0.1271,0.1432,0.1485,0.1617,0.1468,0,0,0,0,0]},{"header":{"parameterUnit":"m.s-1","parameterCategory":2,"la1":30.2991,"la2":30.254,"lo1":-89.0895,"lo2":-89.0444,"dy":0.0017,"dx":0.0017,"nx":28,"ny":28,"refTime":"2023-08-01T03:00:00:Z","depth":"2","parameterNumber":3,"parameterNumberName":"V-component_of_CURRENTS"},"data":[0,0,0,0,0,0,0,0,0,0,0,0,0,0,0,0,0,0,0,0,0,0,0,0,0,0,0,0,0,0,0,0,0,0,0,0,0,0,0,0,0,0,0,0,0,0,0,0,0,0,0,0,0,0,0,0,0,0,0.0054,0.0054,0,0.0049,0.0049,0.0049,0.0038,0.0038,0.0038,0.0038,0.0012,0.0011,0.0011,0,0,0,0,0,0,0,0,0,0,0,0,0,0.0037,0.0037,0.0054,0.0054,0.0054,0.0049,0.0049,0.0049,0.0038,0.0038,0.0038,0.0038,0.0012,0.0012,0.0011,0,0,0,0,0,0,0,0,0,0,0,0,0,0.0038,0.0038,0.0054,0.005,0.0049,0.005,0.0049,0.0049,0.0038,0.0038,0.0038,0.0038,0.0012,0.0012,0.0011,0.0007,0,0,0.0008,0.0007,0,0,0,0,0,0,0,0,0.0038,0.0039,0.005,0.005,0.005,0.0046,0.0034,0.0034,0.0038,0.0041,0.0038,0.0038,0.0022,0.0021,0.0018,0.0006,0.0005,0.0008,0.0007,0.0007,0.0006,0,0,0,0,0,0,0,0.0038,0.0039,0.0051,0.005,0.005,0.0042,0.0042,0.0034,0.0031,0.0041,0.004,0.0042,0.0022,0.0019,0.0017,0.0004,0.0008,0.0007,0.0006,0.0006,-0.0042,-0.0042,0,0,0,0,0,0,0.0043,0.0039,0.0051,0.0051,0.0045,0.0043,0.0043,0.0046,0.0031,0.003,0.0042,0.0042,0.0021,0.0018,0.0016,-0.0012,0.0007,0.0006,0.0005,-0.0041,-0.0042,-0.0042,0,0,0,0,0,0,0.0043,0.0044,0.0051,0.0046,0.0046,0.0043,0.0047,0.0046,0.0044,0.0033,0.0031,0.0042,0.0021,0.0018,0.0004,-0.0012,0.0005,0.0005,-0.004,-0.0041,-0.0042,-0.0054,0,0,0,0,0,0,0.0042,0.0044,0.0046,0.0046,0.0047,0.0054,0.0047,0.0046,0.0046,0.0046,0.0032,0.003,0.002,0.0005,0.0003,-0.0013,0.0004,-0.0039,-0.004,-0.0042,-0.0053,-0.0056,-0.0058,0,0,0,0,0,0.0042,0.005,0.0046,0.0047,0.005,0.0055,0.0054,0.005,0.0047,0.0048,0.0033,0.003,-0.0005,0.0004,0.0002,-0.0015,-0.0038,-0.004,-0.0042,-0.0052,-0.0055,-0.0058,0,0,0,0,0,0,0.0043,0.005,0.0045,0.0055,0.0055,0.0054,0.0055,0.0053,0.0042,0.0039,0.0026,0.0022,-0.0001,-0.0003,0.0008,-0.0034,-0.0024,-0.0026,-0.0031,-0.0034,-0.0037,0.0008,0.0003,0,0,0,0,0,0.0045,0.0053,0.0054,0.0061,0.0061,0.0057,0.0057,0.0056,0.0049,0.0045,0.0034,0.0016,-0.001,-0.0016,-0.0035,-0.0048,-0.0004,-0.0063,-0.0065,-0.0067,-0.0034,0.0026,0.0034,-0.0048,-0.0048,-0.0048,0,0,0.0045,0.0052,0.0055,0.0061,0.0059,0.0059,0.0057,0.006,0.0055,0.0043,0.003,0.0007,-0.0017,-0.0042,-0.0052,-0.0043,-0.0027,-0.0069,-0.0071,-0.0035,0.0026,0.0034,0.0042,-0.0049,-0.0048,-0.0048,0,0,0.0057,0.0058,0.0067,0.0068,0.0071,0.0065,0.0067,0.0064,0.0057,0.0043,0.0022,0.0006,-0.003,-0.0042,-0.0058,-0.0078,-0.0046,-0.0104,-0.0074,-0.0018,-0.001,-0.0002,0.0046,0.0058,-0.01,-0.01,-0.01,0,0.0058,0.0066,0.007,0.0078,0.0076,0.0068,0.007,0.0061,0.0053,0.0066,0.0038,0.0013,-0.0024,-0.0029,-0.0059,-0.008,-0.0043,-0.0064,-0.0017,-0.0008,0.0,0.0047,0.0061,-0.0101,-0.0101,-0.0101,-0.0101,0,0.007,0.0076,0.0081,0.0083,0.0084,0.0084,0.0075,0.0078,0.0063,0.0068,0.0066,0.0024,0.0026,-0.0017,-0.0056,-0.0028,-0.0021,-0.003,-0.0002,0.0009,0.0056,0.0071,-0.0102,-0.0102,-0.0102,-0.0102,0,0,0.0076,0.0086,0.0088,0.0093,0.0085,0.0092,0.0088,0.01,0.0137,0.0105,0.0152,0.0069,0.0079,0.0063,0.0021,0.0045,0.0093,0.0025,0.0028,0.0088,0.0222,0.0169,0.0181,0.0095,0.0098,0.01,0.0225,0,0.008,0.0096,0.0096,0.0105,0.0108,0.0107,0.0117,0.0133,0.0146,0.0193,0.0168,0.0181,0.0098,0.0098,0.0108,0.0116,0.0136,0.0061,0.0192,0.0197,0.0162,0.0198,0.0173,0.0278,0.024,0.0242,0.0244,0,0.009,0.0098,0.0104,0.0132,0.0136,0.0136,0.0182,0.0193,0.0254,0.0273,0.0304,0.0305,0.0323,0.0247,0.0302,0.0261,0.0238,0.0234,0.0239,0.0217,0.0173,0.0264,0.0307,0.0269,0.0267,0.0266,0.0264,0,0.0095,0.0111,0.0115,0.0116,0.0139,0.0149,0.0161,0.022,0.0271,0.0338,0.0403,0.0434,0.0467,0.0466,0.0425,0.0382,0.0499,0.0448,0.0383,0.0379,0.0402,0.0394,0.0488,0.0488,0.0488,0.0488,0.0487,0,0.0097,0.0107,0.0118,0.0118,0.0158,0.0161,0.0232,0.0261,0.0345,0.0455,0.0444,0.0553,0.0525,0.0576,0.0514,0.0512,0.0577,0.0419,0.042,0.0389,0.038,0.0406,0.0395,0.0492,0.0491,0.049,0.049,0,0.0099,0.0102,0.0122,0.0142,0.0159,0.0183,0.0267,0.0355,0.0399,0.0546,0.0573,0.0677,0.0745,0.0698,0.0725,0.064,0.0627,0.0589,0.0543,0.0535,0.0449,0.0436,0.0574,0.0573,0.0573,0.0572,0.0572,0,0.0099,0.0105,0.0143,0.0184,0.0189,0.024,0.0319,0.0374,0.0482,0.0648,0.0747,0.0833,0.0925,0.0929,0.0799,0.0707,0.0662,0.0604,0.0497,0.0477,0.0465,0.0451,0.0439,0.0523,0.0523,0.0522,0.0522,0,0.0108,0.012,0.0143,0.023,0.0299,0.0396,0.0494,0.0598,0.0713,0.0821,0.1018,0.1091,0.1061,0.0986,0.0804,0.0725,0.0615,0.0586,0.0643,0.0476,0.0432,0.0417,0.0407,0.0516,0.0517,0.0517,0.0518,0.0518,0.0129,0.0165,0.0221,0.0304,0.0393,0.0557,0.0669,0.0806,0.0976,0.1146,0.1205,0.1242,0.1121,0.0871,0.0755,0.0583,0.0588,0.0504,0.0506,0.0509,0.0451,0.0406,0.0476,0.0476,0.0476,0.0476,0.0477,0,0.0185,0.0238,0.0315,0.0433,0.0552,0.0579,0.0805,0.0924,0.1139,0.122,0.1318,0.1147,0.1039,0.0865,0.06,0.0474,0.0456,0.0428,0.0431,0.0437,0.0442,0.0381,0.0387,0.0387,0.0386,0.0386,0,0,0.0227,0.0325,0.0373,0.0566,0.064,0.0825,0.0965,0.1117,0.1197,0.1285,0.1237,0.122,0.1016,0.0806,0.0652,0.0513,0.05,0.048,0.0562,0.059,0.0596,0.0493,0.0405,0,0,0,0,0]}],[{"header":{"parameterUnit":"m.s-1","parameterCategory":2,"la1":30.2991,"la2":30.254,"lo1":-89.0895,"lo2":-89.0444,"dy":0.0017,"dx":0.0017,"nx":28,"ny":28,"refTime":"2023-08-01T03:00:00:Z","depth":"4","parameterNumber":2,"parameterNumberName":"U-component_of_CURRENTS"},"data":[0,0,0,0,0,0,0,0,0,0,0,0,0,0,0,0,0,0,0,0,0,0,0,0,0,0,0,0,0,0,0,0,0,0,0,0,0,0,0,0,0,0,0,0,0,0,0,0,0,0,0,0,0,0,0,0,0,0,0.0623,0.0623,0,0.0605,0.0605,0.0605,0.0621,0.0622,0.0623,0.0623,0.0648,0.0648,0.0648,0,0,0,0,0,0,0,0,0,0,0,0,0,0.0648,0.0648,0.0623,0.0623,0.0623,0.0605,0.0605,0.0605,0.0621,0.0622,0.0623,0.0624,0.0648,0.0648,0.0648,0,0,0,0,0,0,0,0,0,0,0,0,0,0.0634,0.0647,0.0623,0.0629,0.0629,0.0605,0.0605,0.0605,0.0621,0.0622,0.0623,0.0624,0.0648,0.0648,0.0648,0.0627,0,0,0.0648,0.0648,0,0,0,0,0,0,0,0,0.0635,0.0633,0.0628,0.0629,0.0629,0.0617,0.0623,0.0614,0.0621,0.0624,0.0623,0.0624,0.0641,0.0641,0.0635,0.0628,0.0629,0.0648,0.0648,0.0648,0.0648,0,0,0,0,0,0,0,0.0636,0.0634,0.0616,0.0628,0.0629,0.0624,0.0624,0.0621,0.0627,0.0624,0.0625,0.0623,0.0641,0.0634,0.0635,0.0629,0.0648,0.0648,0.0648,0.0648,0.0645,0.0645,0,0,0,0,0,0,0.0639,0.0635,0.0616,0.0615,0.0635,0.0623,0.0623,0.0619,0.0626,0.0628,0.0622,0.0624,0.0634,0.0635,0.0636,0.0624,0.0648,0.0648,0.0648,0.0645,0.0645,0.0645,0,0,0,0,0,0,0.0639,0.0637,0.0617,0.0625,0.0622,0.0622,0.0618,0.0618,0.0629,0.0625,0.0628,0.0635,0.0635,0.0636,0.0636,0.0625,0.0648,0.0648,0.0645,0.0645,0.0645,0.0593,0,0,0,0,0,0,0.064,0.0637,0.0642,0.0625,0.0622,0.0598,0.0617,0.0617,0.0625,0.0628,0.0636,0.0638,0.0636,0.0635,0.0635,0.0626,0.0648,0.0645,0.0645,0.0645,0.0594,0.0591,0.0588,0,0,0,0,0,0.0641,0.0632,0.0643,0.0641,0.0627,0.0598,0.0595,0.0599,0.0625,0.0616,0.0627,0.0639,0.0635,0.0635,0.0635,0.0625,0.0645,0.0645,0.0645,0.0596,0.0591,0.0588,0,0,0,0,0,0,0.0649,0.0632,0.0644,0.0634,0.0619,0.0601,0.0597,0.0607,0.0608,0.0623,0.063,0.0631,0.0633,0.0638,0.0637,0.0627,0.0646,0.0645,0.0608,0.0604,0.0601,0.0617,0.0648,0,0,0,0,0,0.0653,0.064,0.0628,0.0619,0.0616,0.0614,0.061,0.0612,0.0608,0.0612,0.0615,0.0625,0.0628,0.0624,0.063,0.0613,0.0671,0.0611,0.0608,0.0605,0.062,0.0725,0.0733,0.0644,0.0644,0.0644,0,0,0.0652,0.0644,0.0636,0.062,0.0615,0.0582,0.0614,0.0605,0.0579,0.0614,0.0591,0.0619,0.0626,0.0611,0.0612,0.0612,0.0652,0.0605,0.0601,0.0619,0.0726,0.0735,0.0743,0.0644,0.0644,0.0644,0,0,0.0624,0.064,0.0613,0.0597,0.0587,0.0576,0.0578,0.0568,0.0569,0.0549,0.0579,0.06,0.0586,0.0591,0.0592,0.0574,0.0641,0.0583,0.0563,0.0663,0.0672,0.068,0.073,0.0744,0.0568,0.0568,0.0568,0,0.0634,0.0587,0.0601,0.0567,0.0547,0.0572,0.0532,0.0525,0.0515,0.054,0.0535,0.0575,0.0572,0.058,0.0567,0.0565,0.0634,0.0571,0.066,0.067,0.068,0.073,0.0746,0.0565,0.0565,0.0566,0.0566,0,0.0569,0.0538,0.0521,0.0481,0.0468,0.0436,0.0429,0.043,0.0446,0.0471,0.0506,0.0507,0.0555,0.0535,0.0535,0.0598,0.0626,0.0655,0.0672,0.0686,0.0737,0.0754,0.0561,0.0562,0.0563,0.0564,0,0,0.0575,0.049,0.0487,0.0444,0.042,0.0394,0.0371,0.0373,0.041,0.041,0.046,0.0444,0.053,0.0538,0.0557,0.0601,0.0695,0.0655,0.0662,0.0706,0.091,0.0765,0.077,0.0765,0.0769,0.0772,0.0904,0,0.052,0.0416,0.0404,0.0317,0.0259,0.0283,0.0281,0.0308,0.0344,0.0406,0.0452,0.0517,0.0506,0.0556,0.0603,0.069,0.0747,0.0656,0.0889,0.0895,0.0767,0.0787,0.0783,0.0918,0.0922,0.0925,0.0927,0,0.046,0.039,0.0287,0.0234,0.0227,0.021,0.0239,0.0252,0.0367,0.0414,0.0502,0.058,0.0649,0.0651,0.08,0.0759,0.0845,0.0886,0.0894,0.0797,0.0784,0.0911,0.096,0.0957,0.0955,0.0952,0.095,0,0.0412,0.0316,0.0224,0.0195,0.0153,0.016,0.0191,0.0287,0.0345,0.047,0.055,0.065,0.0736,0.0841,0.0918,0.0907,0.1081,0.1085,0.1025,0.1015,0.1131,0.1121,0.1227,0.1226,0.1226,0.1226,0.1225,0,0.0335,0.0266,0.0205,0.0145,0.0127,0.0151,0.0211,0.0256,0.0398,0.0499,0.0603,0.0673,0.0807,0.0911,0.0969,0.1029,0.1142,0.103,0.1049,0.1098,0.1083,0.1141,0.113,0.1231,0.123,0.1229,0.1228,0,0.0275,0.0226,0.012,0.0075,0.0089,0.0099,0.0217,0.0284,0.0424,0.055,0.0607,0.0753,0.0864,0.095,0.1108,0.1091,0.1155,0.1161,0.1177,0.1195,0.101,0.0995,0.1114,0.111,0.1107,0.1104,0.1102,0,0.0223,0.015,0.0074,0.0065,0.0049,0.0096,0.0164,0.0287,0.0363,0.0571,0.0622,0.0783,0.0859,0.0966,0.1041,0.1124,0.112,0.115,0.1089,0.0996,0.1005,0.0994,0.0983,0.1097,0.1096,0.1095,0.1094,0,0.0114,0.0094,0.002,0.001,0.0034,0.0065,0.0161,0.0218,0.0388,0.0499,0.0637,0.0724,0.0835,0.0908,0.0978,0.1032,0.1115,0.1116,0.1124,0.1066,0.0977,0.0986,0.0979,0.1083,0.1085,0.1086,0.1086,0,0.0063,0.0013,-0.0045,-0.0039,-0.0016,0.0035,0.0088,0.0195,0.0298,0.0519,0.0547,0.0707,0.082,0.0863,0.0918,0.0949,0.0944,0.0926,0.0943,0.0957,0.0835,0.0695,0.074,0,0,0,0,0,0.0017,-0.0025,-0.0064,-0.0077,-0.0051,-0.0018,0.0086,0.0159,0.0307,0.0384,0.0478,0.0571,0.0678,0.0746,0.0751,0.0824,0.0926,0.0822,0.0908,0.1021,0.1034,0.0901,0,0,0,0,0,0,-0.001,-0.007,-0.0093,-0.0098,-0.0086,-0.0046,0.002,0.012,0.0176,0.0329,0.0391,0.0501,0.0607,0.0664,0.0727,0.0746,0.0781,0.0906,0.0904,0.1014,0.1025,0.1036,0.0903,0,0,0,0,0]},{"header":{"parameterUnit":"m.s-1","parameterCategory":2,"la1":30.2991,"la2":30.254,"lo1":-89.0895,"lo2":-89.0444,"dy":0.0017,"dx":0.0017,"nx":28,"ny":28,"refTime":"2023-08-01T03:00:00:Z","depth":"4","parameterNumber":3,"parameterNumberName":"V-component_of_CURRENTS"},"data":[0,0,0,0,0,0,0,0,0,0,0,0,0,0,0,0,0,0,0,0,0,0,0,0,0,0,0,0,0,0,0,0,0,0,0,0,0,0,0,0,0,0,0,0,0,0,0,0,0,0,0,0,0,0,0,0,0,0,0.0089,0.0089,0,0.0101,0.0101,0.0102,0.0096,0.0096,0.0096,0.0095,0.0086,0.0086,0.0086,0,0,0,0,0,0,0,0,0,0,0,0,0,0.0066,0.0067,0.0089,0.0089,0.0089,0.0101,0.0101,0.0102,0.0096,0.0096,0.0095,0.0095,0.0086,0.0086,0.0086,0,0,0,0,0,0,0,0,0,0,0,0,0,0.0078,0.0067,0.0089,0.0088,0.0088,0.0101,0.0101,0.0102,0.0096,0.0096,0.0095,0.0095,0.0086,0.0086,0.0086,0.0097,0,0,0.0086,0.0086,0,0,0,0,0,0,0,0,0.0077,0.0078,0.0088,0.0088,0.0088,0.0096,0.009,0.0099,0.0097,0.0094,0.0095,0.0095,0.0087,0.0087,0.0092,0.0097,0.0096,0.0086,0.0086,0.0086,0.0086,0,0,0,0,0,0,0,0.0076,0.0078,0.0094,0.0088,0.0088,0.0088,0.0089,0.0092,0.0093,0.0094,0.0093,0.0094,0.0087,0.0092,0.0091,0.0096,0.0086,0.0086,0.0086,0.0087,0.0117,0.0118,0,0,0,0,0,0,0.0074,0.0077,0.0094,0.0095,0.008,0.0089,0.009,0.0094,0.0094,0.0093,0.0094,0.0094,0.0092,0.0091,0.0091,0.0139,0.0086,0.0087,0.0087,0.0116,0.0117,0.0118,0,0,0,0,0,0,0.0074,0.0076,0.0094,0.0086,0.0088,0.009,0.0095,0.0095,0.0101,0.0094,0.0093,0.01,0.0091,0.0091,0.0097,0.0137,0.0087,0.0087,0.0115,0.0116,0.0117,0.0211,0,0,0,0,0,0,0.0073,0.0075,0.0079,0.0086,0.0088,0.011,0.0095,0.0096,0.0101,0.0101,0.0099,0.0097,0.0091,0.0097,0.0097,0.0136,0.0087,0.0114,0.0116,0.0117,0.0207,0.0215,0.0222,0,0,0,0,0,0.0072,0.0083,0.008,0.0082,0.0093,0.0111,0.0113,0.0112,0.0102,0.0113,0.0107,0.0097,0.0106,0.0098,0.0098,0.0138,0.0114,0.0115,0.0117,0.0204,0.0214,0.0222,0,0,0,0,0,0,0.0076,0.0083,0.008,0.0092,0.0103,0.011,0.0117,0.0116,0.012,0.0118,0.0106,0.0105,0.0126,0.0111,0.0102,0.0147,0.0109,0.0111,0.0175,0.0184,0.0191,0.0194,0.0087,0,0,0,0,0,0.0079,0.009,0.0095,0.0108,0.011,0.0114,0.0119,0.0123,0.0126,0.0128,0.0127,0.0124,0.0133,0.014,0.014,0.0165,0.0126,0.0188,0.0196,0.0203,0.0203,0.0153,0.0156,0.0123,0.0123,0.0123,0,0,0.0082,0.009,0.0094,0.011,0.0114,0.0141,0.0116,0.0133,0.0168,0.0126,0.0164,0.0149,0.0143,0.0174,0.0182,0.0168,0.0197,0.0205,0.0211,0.0207,0.0155,0.0158,0.0161,0.0124,0.0124,0.0124,0,0,0.0105,0.0103,0.0121,0.0136,0.0151,0.0159,0.0165,0.0177,0.0192,0.0223,0.0203,0.0205,0.0223,0.0228,0.0233,0.0278,0.0234,0.0281,0.0332,0.0285,0.0287,0.0288,0.0268,0.0267,0.0291,0.0291,0.0291,0,0.0109,0.014,0.013,0.0159,0.0183,0.0171,0.021,0.0229,0.0245,0.026,0.0247,0.0249,0.0254,0.028,0.0308,0.0299,0.0263,0.0304,0.0295,0.0295,0.0295,0.0274,0.0271,0.0296,0.0295,0.0295,0.0294,0,0.0148,0.0179,0.0193,0.023,0.0253,0.0284,0.0308,0.0329,0.034,0.0351,0.0368,0.0352,0.035,0.0362,0.0362,0.0371,0.0344,0.0306,0.0274,0.0304,0.028,0.0276,0.0302,0.0301,0.0299,0.0298,0,0,0.0147,0.0209,0.0216,0.0256,0.0298,0.0324,0.0379,0.0422,0.044,0.0452,0.0465,0.0497,0.0459,0.0459,0.0438,0.0413,0.041,0.0372,0.0368,0.0358,0.0316,0.0309,0.0303,0.0359,0.0359,0.0358,0.031,0,0.0186,0.0262,0.0283,0.0366,0.041,0.0428,0.0484,0.0518,0.052,0.0524,0.0509,0.0512,0.0506,0.0494,0.0472,0.0411,0.0397,0.0427,0.0283,0.028,0.0273,0.0297,0.0355,0.0306,0.0305,0.0304,0.0304,0,0.0217,0.0275,0.0364,0.0451,0.0469,0.0523,0.0578,0.0624,0.0627,0.0615,0.059,0.0554,0.0545,0.051,0.0439,0.0452,0.0405,0.0354,0.0349,0.0302,0.0264,0.0261,0.0295,0.0296,0.0296,0.0297,0.0297,0,0.0231,0.0327,0.0408,0.044,0.0533,0.0586,0.0639,0.0663,0.0689,0.0661,0.0643,0.0595,0.0577,0.0495,0.0429,0.0424,0.032,0.0292,0.0243,0.0242,0.0221,0.0219,0.0233,0.0234,0.0234,0.0234,0.0234,0,0.0267,0.0328,0.0431,0.048,0.0582,0.0635,0.0709,0.0726,0.0733,0.0741,0.0698,0.066,0.0569,0.0502,0.0424,0.033,0.032,0.0257,0.0225,0.0266,0.027,0.0219,0.0218,0.0232,0.0232,0.0233,0.0233,0,0.027,0.0331,0.043,0.055,0.0596,0.0673,0.0773,0.0798,0.0808,0.08,0.0796,0.0723,0.0632,0.0537,0.04,0.0343,0.0234,0.0204,0.0279,0.0251,0.0192,0.0196,0.014,0.0139,0.0138,0.0138,0.0137,0,0.0279,0.0338,0.0475,0.0536,0.0603,0.0719,0.0783,0.0833,0.0837,0.0826,0.0807,0.0742,0.0678,0.0493,0.0386,0.0236,0.0216,0.0176,0.0171,0.0206,0.018,0.0186,0.0191,0.0136,0.0136,0.0136,0.0136,0,0.0307,0.0354,0.0428,0.0544,0.0638,0.0738,0.0829,0.0839,0.0869,0.0871,0.0801,0.0716,0.0615,0.0475,0.0375,0.026,0.0202,0.0168,0.0169,0.0165,0.0201,0.0177,0.0183,0.0134,0.0134,0.0134,0.0134,0,0.0311,0.0361,0.0442,0.0554,0.0651,0.0737,0.0796,0.0821,0.0845,0.0826,0.0795,0.0697,0.0641,0.0487,0.0378,0.0281,0.0251,0.0219,0.0216,0.0217,0.0252,0.031,0.0253,0,0,0,0,0,0.0318,0.037,0.0449,0.0563,0.0648,0.0718,0.0802,0.0841,0.0867,0.0816,0.0809,0.0706,0.0553,0.0483,0.0383,0.0362,0.0236,0.0241,0.0198,0.0122,0.0124,0.015,0,0,0,0,0,0,0.032,0.0381,0.0433,0.0541,0.0619,0.0717,0.0782,0.081,0.0781,0.0785,0.0699,0.0676,0.0522,0.0606,0.0376,0.0348,0.0306,0.0176,0.0173,0.012,0.0122,0.0124,0.0152,0,0,0,0,0]}]]